Location: Oshawa
(43.9000°N, 78.8670°W)
Time: 09:57:47
(UTC-04:00)

Cosmos 1500 - Visible Passes

Search period start: 21 September 2017 00:00
Search period end: 01 October 2017 00:00
Orbit: 501 x 525 km, 82.5° (Epoch: 20 September)

Date Brightness Start Highest point End Pass type
(mag) Time Alt. Az. Time Alt. Az. Time Alt. Az.
21 Sep 5.1 04:35:27 10° NNE 04:38:45 28° ENE 04:42:02 10° SE visible
21 Sep 4.5 06:11:32 10° NW 06:14:13 19° W 06:16:52 10° SW visible
22 Sep 5.5 04:19:47 10° NNE 04:22:52 23° ENE 04:25:49 11° SE visible
22 Sep 4.3 05:55:26 10° NW 05:58:26 23° W 06:00:31 15° SW visible
23 Sep 5.7 04:04:11 10° NNE 04:06:58 19° ENE 04:07:26 19° E visible
23 Sep 4.1 05:39:23 10° NNW 05:42:15 28° W 05:42:15 28° W visible
24 Sep 6.2 03:48:40 10° NNE 03:50:04 15° NE 03:50:04 15° NE visible
24 Sep 4.8 05:23:24 10° NNW 05:24:56 21° NW 05:24:56 21° NW visible
25 Sep 5.5 05:07:26 10° NNW 05:08:00 14° NNW 05:08:00 14° NNW visible
